Amsterdam, Netherlands

9:10 AM CET on February 20, 2018 (GMT +0100)
Schiphol

Weather History for EHAM - October, 2012

Change the Weather History Date:

Thursday, October 25, 2012

  Actual Average Record
Temperature  
Mean Temperature 52 °F -  
Max Temperature 56 °F 49 °F 63 °F (2013)
Min Temperature 48 °F 40 °F 35 °F (2003)
Degree Days  
Heating Degree Days 13    
Growing Degree Days 2 (Base 50)    
Moisture  
Dew Point 46 °F    
Average Humidity 82    
Maximum Humidity 100    
Minimum Humidity 61    
Precipitation  
Precipitation 0.00 in - - ()
Sea Level Pressure  
Sea Level Pressure 30.03 in    
Wind  
Wind Speed 7 mph ()    
Max Wind Speed 13 mph    
Max Gust Speed -    
Visibility 5.5 miles    
Events      
Averages and records for this station are not official NWS values.
T = Trace of Precipitation, MM = Missing Value Source: Averaged Metar Reports

Daily Weather History Graph

Daily Weather History Graph

Search for Another Location

Airport or City:

Trip Planner

Search our weather history database for the weather conditions in past years. The results will help you decide how hot, cold, wet, or windy it might be!

Date:

Astronomy

Oct. 25, 2012 Rise Set
Actual Time 8:24 AM CEST 6:24 PM CEST
Civil Twilight 7:49 AM CEST 6:59 PM CEST
Nautical Twilight 7:09 AM CEST 7:39 PM CEST
Astronomical Twilight 6:30 AM CEST 8:18 PM CEST
Moon 4:28 PM CEST (10/25) 3:35 AM CEST (10/25)
Length of Visible Light 11h 10m
Length of Day
10h 00m
Waxing Gibbous, 82% of the Moon is Illuminated
Oct 25
Waxing Gibbous
Oct 29
Full
Nov 7
Last Quarter
Nov 13
New
Nov 20
First Quarter

Hourly Weather History & Observations

Time (CEST) Temp. Dew Point Humidity Pressure Visibility Wind Dir Wind Speed Gust Speed Precip Events Conditions
12:25 AM 51.8 °F 50.0 °F 94% 30.06 in 5.6 mi East 8.1 mph - N/A   Mostly Cloudy
12:55 AM 51.8 °F 50.0 °F 94% 30.06 in 5.0 mi ENE 5.8 mph - N/A   Mostly Cloudy
1:25 AM 51.8 °F 50.0 °F 94% 30.06 in 4.3 mi ENE 8.1 mph - N/A   Mostly Cloudy
1:55 AM 51.8 °F 50.0 °F 94% 30.06 in 4.3 mi ENE 6.9 mph - N/A   Mostly Cloudy
2:00 AM 52 °F 50 °F 92% 30.10 in 3 mi ENE 8.9 mph - -   Mist
2:25 AM 51.8 °F 50.0 °F 94% 30.09 in 3.7 mi NE 4.6 mph - N/A   Mostly Cloudy
2:55 AM 51.8 °F 50.0 °F 94% 30.09 in 3.1 mi NE 9.2 mph - N/A   Mostly Cloudy
3:25 AM 51.8 °F 51.8 °F 100% 30.06 in - NE 5.8 mph - N/A   Mostly Cloudy
3:55 AM 51.8 °F 51.8 °F 100% 30.06 in - NNE 5.8 mph - N/A   Overcast
4:25 AM 51.8 °F 50.0 °F 94% 30.06 in 3.1 mi ENE 3.5 mph - N/A   Mostly Cloudy
4:55 AM 51.8 °F 50.0 °F 94% 30.04 in 3.1 mi ENE 5.8 mph - N/A   Mostly Cloudy
5:00 AM 52 °F 51 °F 93% 30.06 in 3 mi ENE 6.7 mph - -   Mist
5:25 AM 51.8 °F 50.0 °F 94% 30.04 in 3.1 mi ENE 4.6 mph - N/A   Mostly Cloudy
5:55 AM 51.8 °F 50.0 °F 94% 30.04 in 3.1 mi Variable 2.3 mph - N/A   Mostly Cloudy
6:25 AM 51.8 °F 50.0 °F 94% 30.01 in 3.7 mi Variable 2.3 mph - N/A   Mostly Cloudy
6:55 AM 51.8 °F 50.0 °F 94% 30.04 in 3.7 mi NNW 4.6 mph - N/A   Mostly Cloudy
7:25 AM 51.8 °F 50.0 °F 94% 30.04 in 3.7 mi NNW 4.6 mph - N/A   Mostly Cloudy
7:55 AM 51.8 °F 50.0 °F 94% 30.04 in 3.1 mi North 4.6 mph - N/A   Overcast
8:00 AM 53 °F 51 °F 88% 30.04 in 3 mi North 4.5 mph - -   Mist
8:25 AM 53.6 °F 51.8 °F 94% 30.04 in - North 5.8 mph - N/A   Overcast
8:55 AM 51.8 °F 51.8 °F 100% 30.04 in 3.7 mi North 10.4 mph - N/A   Overcast
9:25 AM 51.8 °F 50.0 °F 94% 30.04 in 6.2 mi NNE 10.4 mph - N/A   Overcast
9:55 AM 51.8 °F 50.0 °F 94% 30.04 in 6.2 mi North 9.2 mph - N/A   Mostly Cloudy
10:25 AM 51.8 °F 48.2 °F 88% 30.04 in 6.2 mi North 8.1 mph - N/A   Mostly Cloudy
10:55 AM 51.8 °F 46.4 °F 82% 30.04 in 6.2 mi North 8.1 mph - N/A   Mostly Cloudy
11:00 AM 52 °F 47 °F 79% 30.05 in 25 mi North 8.9 mph - -   Overcast
11:25 AM 51.8 °F 46.4 °F 82% 30.04 in 6.2 mi North 5.8 mph - N/A   Mostly Cloudy
11:55 AM 53.6 °F 46.4 °F 77% 30.04 in 6.2 mi North 6.9 mph - N/A   Mostly Cloudy
12:25 PM 53.6 °F 46.4 °F 77% 30.04 in 6.2 mi North 6.9 mph - N/A   Scattered Clouds
12:55 PM 53.6 °F 46.4 °F 77% 30.04 in 6.2 mi North 9.2 mph - N/A   Partly Cloudy
1:25 PM 53.6 °F 46.4 °F 77% 30.01 in 6.2 mi North 9.2 mph - N/A   Partly Cloudy
1:55 PM 55.4 °F 46.4 °F 72% 30.01 in 6.2 mi North 9.2 mph - N/A   Partly Cloudy
2:00 PM 55 °F 46 °F 63% 30.01 in 25 mi North 8.9 mph - -   Partly Cloudy
2:25 PM 55.4 °F 44.6 °F 67% 30.01 in 6.2 mi NNW 9.2 mph - N/A   Scattered Clouds
2:55 PM 53.6 °F 48.2 °F 82% 29.98 in 6.2 mi North 12.7 mph - N/A   Mostly Cloudy
3:25 PM 53.6 °F 46.4 °F 77% 29.98 in 6.2 mi North 9.2 mph - N/A   Mostly Cloudy
3:55 PM 53.6 °F 46.4 °F 77% 29.98 in 6.2 mi North 10.4 mph - N/A   Mostly Cloudy
4:25 PM 51.8 °F 44.6 °F 76% 29.98 in 6.2 mi North 10.4 mph - N/A   Mostly Cloudy
4:55 PM 51.8 °F 42.8 °F 71% 29.98 in 6.2 mi North 12.7 mph - N/A   Mostly Cloudy
5:00 PM 52 °F 43 °F 62% 30.00 in 25 mi North 13.4 mph - -   Overcast
5:25 PM 51.8 °F 41.0 °F 67% 29.98 in 6.2 mi North 10.4 mph - N/A   Mostly Cloudy
5:55 PM 51.8 °F 41.0 °F 67% 29.98 in 6.2 mi North 11.5 mph - N/A   Mostly Cloudy
6:25 PM 51.8 °F 41.0 °F 67% 29.98 in 6.2 mi North 8.1 mph - N/A   Mostly Cloudy
6:55 PM 51.8 °F 41.0 °F 67% 29.98 in 6.2 mi NNE 9.2 mph - N/A   Mostly Cloudy
7:25 PM 50.0 °F 42.8 °F 76% 29.98 in 6.2 mi North 10.4 mph - N/A   Mostly Cloudy
7:55 PM 50.0 °F 42.8 °F 76% 30.01 in 6.2 mi North 10.4 mph - N/A   Mostly Cloudy
8:00 PM 50 °F 43 °F 69% 30.01 in 28 mi North 11.2 mph - -   Partly Cloudy
8:25 PM 50.0 °F 42.8 °F 76% 30.01 in 6.2 mi North 11.5 mph - N/A   Mostly Cloudy
8:55 PM 50.0 °F 41.0 °F 71% 30.01 in 6.2 mi NNE 9.2 mph - N/A   Partly Cloudy
9:25 PM 50.0 °F 41.0 °F 71% 30.01 in 6.2 mi North 8.1 mph - N/A   Partly Cloudy
9:55 PM 50.0 °F 41.0 °F 71% 30.01 in 6.2 mi North 8.1 mph - N/A   Partly Cloudy
10:25 PM 50.0 °F 41.0 °F 71% 30.01 in - North 10.4 mph - N/A   Clear
10:55 PM 48.2 °F 41.0 °F 76% 30.01 in - North 6.9 mph - N/A   Clear
11:00 PM 49 °F 40 °F 61% 30.03 in 19 mi North 6.7 mph - -   Overcast
11:25 PM 48.2 °F 41.0 °F 76% 30.01 in - North 5.8 mph - N/A   Clear
11:55 PM 48.2 °F 41.0 °F 76% 30.01 in - North 5.8 mph - N/A   Clear